TimeEDT,TemperatureF,Dew PointF,Humidity,Sea Level PressureIn,VisibilityMPH,Wind Direction,Wind SpeedMPH,Gust SpeedMPH,PrecipitationIn,Events,Conditions,WindDirDegrees,DateUTC
12:52 AM,27.0,7.0,43,30.32,10.0,North,6.9,-,N/A,,Clear,10,2013-03-18 04:52:00
1:52 AM,25.0,7.0,46,30.35,10.0,NNE,9.2,-,N/A,,Clear,20,2013-03-18 05:52:00
2:52 AM,24.1,3.0,40,30.37,10.0,North,9.2,-,N/A,,Clear,350,2013-03-18 06:52:00
3:52 AM,21.9,3.0,44,30.38,10.0,North,6.9,-,N/A,,Clear,360,2013-03-18 07:52:00
4:52 AM,21.0,-0.0,40,30.39,10.0,North,6.9,-,N/A,,Clear,10,2013-03-18 08:52:00
5:52 AM,21.0,1.0,42,30.41,10.0,NNW,6.9,-,N/A,,Clear,340,2013-03-18 09:52:00
6:52 AM,19.9,1.0,44,30.43,10.0,North,6.9,-,N/A,,Clear,350,2013-03-18 10:52:00
7:52 AM,23.0,1.9,40,30.45,10.0,NNW,8.1,-,N/A,,Clear,340,2013-03-18 11:52:00
8:52 AM,26.1,5.0,41,30.46,10.0,North,4.6,-,N/A,,Clear,350,2013-03-18 12:52:00
9:52 AM,28.9,10.0,45,30.45,10.0,Calm,Calm,-,N/A,,Clear,0,2013-03-18 13:52:00
10:52 AM,30.0,12.9,49,30.44,10.0,NE,5.8,-,N/A,,Clear,50,2013-03-18 14:52:00
11:52 AM,32.0,15.1,50,30.42,10.0,Variable,6.9,-,N/A,,Clear,0,2013-03-18 15:52:00
12:52 PM,34.0,16.0,48,30.41,10.0,NE,6.9,-,N/A,,Clear,40,2013-03-18 16:52:00
1:52 PM,34.0,17.1,50,30.39,10.0,NE,6.9,-,N/A,,Clear,40,2013-03-18 17:52:00
2:52 PM,35.1,16.0,46,30.36,10.0,NE,8.1,-,N/A,,Clear,50,2013-03-18 18:52:00
3:52 PM,36.0,16.0,44,30.35,10.0,East,8.1,-,N/A,,Clear,90,2013-03-18 19:52:00
4:52 PM,34.0,16.0,48,30.33,10.0,South,6.9,-,N/A,,Clear,170,2013-03-18 20:52:00
5:52 PM,33.1,17.1,52,30.31,10.0,SE,6.9,-,N/A,,Clear,130,2013-03-18 21:52:00
6:52 PM,32.0,16.0,52,30.32,10.0,Variable,4.6,-,N/A,,Partly Cloudy,0,2013-03-18 22:52:00
7:52 PM,32.0,18.0,56,30.31,10.0,Calm,Calm,-,N/A,,Overcast,0,2013-03-18 23:52:00
8:52 PM,32.0,19.0,59,30.29,10.0,SE,4.6,-,N/A,,Overcast,130,2013-03-19 00:52:00
9:20 PM,30.2,21.2,69,30.29,2.5,SE,8.1,-,0.00,Snow,Light Snow,140,2013-03-19 01:20:00
9:29 PM,30.2,23.0,75,30.29,1.2,SE,4.6,-,0.00,Snow,Light Snow,130,2013-03-19 01:29:00
9:48 PM,30.2,23.0,75,30.28,2.5,SE,5.8,-,0.00,Snow,Light Snow,130,2013-03-19 01:48:00
9:52 PM,30.0,23.0,75,30.29,2.5,ESE,5.8,-,0.00,Snow,Light Snow,120,2013-03-19 01:52:00
10:13 PM,28.4,24.8,86,30.27,1.5,ESE,8.1,-,0.00,Snow,Light Snow,110,2013-03-19 02:13:00
10:26 PM,28.4,24.8,86,30.26,3.0,East,8.1,-,0.00,Snow,Light Snow,90,2013-03-19 02:26:00
10:41 PM,30.2,24.8,80,30.26,9.0,ESE,6.9,-,0.00,,Overcast,110,2013-03-19 02:41:00
10:52 PM,30.0,25.0,82,30.27,10.0,East,5.8,-,0.00,,Overcast,100,2013-03-19 02:52:00
11:52 PM,30.0,26.1,85,30.25,8.0,East,5.8,-,0.00,Snow,Light Snow,90,2013-03-19 03:52:00
11:59 PM,30.2,26.6,86,30.24,2.0,East,5.8,-,0.00,Snow,Light Snow,90,2013-03-19 03:59:00